FW7092 Weather Reports


Display with metric or nautical units.
time (UTC)temp
F
wind
direction
speed
MPH
gust
MPH
rain 1hr
in
rain 24hr
in
rain mn
in
humidity
%
barometer
mb
20260905050633 72 196 0.0 0.0 0.00 0.00 0.00 99 1015.6
20260905050130 72 195 0.0 0.0 0.00 0.00 0.00 99 1015.8
20260905045630 72 195 0.0 0.0 0.00 0.00 0.00 99 1015.7
20260905045125 72 194 0.0 0.0 0.00 0.00 0.00 99 1015.7
20260905044625 72 192 0.0 0.0 0.00 0.00 0.00 99 1015.8
20260905044120 72 191 0.0 0.0 0.00 0.00 0.00 99 1016.1
20260905043618 72 192 0.0 0.0 0.00 0.00 0.00 99 1016.0
20260905043114 73 178 0.0 0.0 0.00 0.00 0.00 99 1015.8
20260905042613 73 184 0.0 0.0 0.00 0.00 0.00 99 1015.7
20260905042108 73 137 0.0 0.0 0.00 0.00 0.00 99 1016.1
20260905041604 73 184 0.0 0.0 0.00 0.00 0.00 99 1016.0
20260905041059 73 193 0.0 0.0 0.00 0.00 0.00 99 1016.2
20260905040559 73 193 0.0 0.0 0.00 0.00 0.00 99 1016.2
20260905040057 73 192 0.0 0.0 0.00 0.00 0.00 99 1016.4
20260905035553 73 188 0.0 0.0 0.00 1.16 1.16 99 1016.3
20260905035049 73 190 0.0 0.0 0.00 1.16 1.16 99 1016.5
20260905034545 73 188 0.0 0.0 0.00 1.16 1.16 99 1016.2
20260905034044 73 191 0.0 1.0 0.00 1.16 1.16 99 1016.3
20260905033538 72 206 0.0 0.0 0.00 1.16 1.16 99 1016.4
20260905033035 72 207 0.0 0.0 0.00 1.16 1.16 99 1016.4
20260905032535 72 207 0.0 0.0 0.00 1.16 1.16 99 1016.5
20260905032030 72 205 0.0 0.0 0.00 1.16 1.16 99 1016.6
20260905031526 72 214 0.0 0.0 0.00 1.16 1.16 99 1016.5
20260905031025 72 212 0.0 0.0 0.00 1.16 1.16 99 1016.6
20260905030521 72 160 0.0 0.0 0.00 1.16 1.16 99 1016.4
20260905030021 72 205 0.0 0.0 0.00 1.16 1.16 99 1016.2
20260905025516 71 220 0.0 0.0 0.00 1.16 1.16 99 1016.2
20260905025012 72 220 0.0 0.0 0.00 1.16 1.16 99 1016.3
20260905024507 72 214 0.0 0.0 0.00 1.16 1.16 99 1016.1
20260905024002 73 209 0.0 0.0 0.00 1.16 1.16 99 1016.0
20260905023457 73 209 0.0 0.0 0.00 1.16 1.16 99 1016.1
20260905022956 73 182 0.0 0.0 0.00 1.16 1.16 98 1016.1
20260905022451 73 223 0.0 0.0 0.00 1.16 1.16 98 1016.2
20260905021947 73 221 0.0 0.0 0.00 1.16 1.16 98 1016.1
20260905021446 73 213 0.0 0.0 0.00 1.16 1.16 98 1016.1
20260905020941 73 213 0.0 0.0 0.00 1.16 1.16 98 1016.0
20260905020436 73 217 0.0 0.0 0.00 1.16 1.16 98 1016.0
20260905015936 73 217 0.0 0.0 0.00 1.16 1.16 98 1016.1
20260905015434 73 218 0.0 0.0 0.00 1.16 1.16 98 1016.3
20260905014933 73 218 0.0 0.0 0.00 1.16 1.16 97 1016.2
20260905014429 73 218 0.0 0.0 0.00 1.16 1.16 97 1016.1
20260905013924 73 217 0.0 0.0 0.00 1.16 1.16 97 1016.1
20260905013421 74 216 0.0 0.0 0.00 1.16 1.16 97 1016.1
20260905012916 74 211 0.0 0.0 0.00 1.16 1.16 97 1016.2
20260905012411 74 225 0.0 0.0 0.00 1.16 1.16 96 1016.2
20260905011908 74 225 0.0 0.0 0.00 1.16 1.16 96 1016.3
20260905011403 74 225 0.0 0.0 0.00 1.16 1.16 96 1016.2
20260905010858 74 225 0.0 0.0 0.00 1.16 1.16 96 1016.4
20260905010353 74 225 0.0 0.0 0.00 1.16 1.16 96 1016.3
20260905005850 74 225 0.0 0.0 0.00 1.16 1.16 96 1016.1
20260905005345 74 225 0.0 0.0 0.00 1.16 1.16 95 1016.4
20260905004840 74 225 0.0 0.0 0.00 1.16 1.16 95 1016.4
20260905004340 75 224 0.0 0.0 0.00 1.16 1.16 94 1016.2
20260905003835 75 224 0.0 0.0 0.00 1.16 1.16 94 1016.1
20260905003331 75 224 0.0 0.0 0.00 1.16 1.16 93 1015.9
20260905002827 76 224 0.0 0.0 0.00 1.16 1.16 93 1016.1
20260905002326 76 224 0.0 0.0 0.00 1.16 1.16 93 1016.2
20260905001821 76 224 0.0 0.0 0.00 1.16 1.16 92 1016.1
20260905001321 76 224 0.0 0.0 0.00 1.16 1.16 92 1015.9
20260905000817 77 225 0.0 0.0 0.00 1.16 1.16 91 1016.2
20260905000312 77 221 0.0 0.0 0.00 1.16 1.16 90 1016.1
20260904235807 78 216 0.0 0.0 0.00 1.16 1.16 89 1016.0
20260904235305 78 216 0.0 0.0 0.00 1.16 1.16 89 1016.1
20260904234756 78 216 0.0 0.0 0.00 1.16 1.16 89 1016.1
20260904234252 78 215 0.0 0.0 0.00 1.16 1.16 88 1016.0
20260904233747 79 210 0.0 0.0 0.00 1.16 1.16 86 1016.2
20260904233244 80 209 0.0 0.0 0.00 1.16 1.16 86 1016.1
20260904232740 80 207 0.0 0.0 0.00 1.16 1.16 85 1016.1
20260904232236 80 203 0.0 0.0 0.00 1.16 1.16 84 1016.0
20260904231731 82 228 0.0 0.0 0.00 1.16 1.16 81 1016.0
20260904231227 82 239 0.0 0.0 0.00 1.16 1.16 78 1016.1
20260904230726 81 226 0.0 0.0 0.00 1.16 1.16 80 1016.0
20260904230221 81 222 0.0 0.0 0.00 1.16 1.16 81 1016.0
20260904225720 81 206 0.0 1.0 0.00 1.16 1.16 82 1015.9
20260904225214 80 182 1.0 1.0 0.00 1.16 1.16 81 1015.8
20260904224713 80 85 1.0 1.0 0.00 1.16 1.16 82 1015.6
20260904224209 80 70 1.0 3.0 0.00 1.16 1.16 82 1015.4
20260904223708 80 183 0.0 1.0 0.00 1.16 1.16 83 1015.6
20260904223203 80 184 0.0 0.0 0.00 1.16 1.16 84 1015.2
20260904222658 80 181 1.0 2.0 0.00 1.16 1.16 85 1015.5
20260904222154 80 233 0.0 1.0 0.00 1.16 1.16 85 1015.2
20260904221653 80 196 1.0 2.0 0.00 1.16 1.16 84 1015.2
20260904221149 80 241 0.0 0.0 0.00 1.16 1.16 84 1015.5
20260904220644 80 241 0.0 1.0 0.00 1.16 1.16 85 1015.5
20260904220139 80 5 1.0 2.0 0.00 1.16 1.16 84 1015.7
20260904215633 80 269 0.0 1.0 0.00 1.16 1.16 83 1015.7
20260904215129 80 250 0.0 1.0 0.00 1.16 1.16 83 1015.8
20260904214629 80 288 1.0 2.0 0.00 1.16 1.16 83 1015.8
20260904214125 79 247 0.0 0.0 0.00 1.16 1.16 84 1015.6
20260904213623 79 240 0.0 1.0 0.00 1.16 1.16 84 1015.4
20260904213120 79 159 1.0 2.0 0.00 1.16 1.16 85 1015.2
20260904212620 78 149 0.0 1.0 0.00 1.16 1.16 85 1015.1
20260904212115 78 261 0.0 1.0 0.00 1.16 1.16 87 1015.2
20260904211614 78 81 1.0 3.0 0.00 1.16 1.16 86 1015.4
20260904211110 78 125 1.0 2.0 0.00 1.16 1.16 86 1015.2
20260904210610 78 72 1.0 2.0 0.00 1.16 1.16 87 1015.4
20260904210105 77 57 1.0 3.0 0.00 1.16 1.16 88 1015.4
20260904205601 77 74 3.0 5.0 0.00 1.16 1.16 87 1015.1
20260904205057 78 232 0.0 1.0 0.00 1.16 1.16 87 1015.5
20260904204553 77 310 1.0 2.0 0.00 1.16 1.16 88 1015.7
20260904204048 77 269 0.0 2.0 0.00 1.16 1.16 88 1015.5
20260904203544 77 267 1.0 1.0 0.00 1.16 1.16 89 1015.5
20260904203041 77 325 1.0 2.0 0.00 1.16 1.16 89 1015.7
20260904202536 77 308 1.0 2.0 0.00 1.16 1.16 89 1015.4
20260904202032 78 288 1.0 2.0 0.00 1.16 1.16 89 1015.0
20260904201527 78 326 3.0 3.0 0.00 1.16 1.16 89 1015.5
20260904201022 78 30 2.0 2.0 0.00 1.16 1.16 88 1014.8
20260904200521 78 79 1.0 1.0 0.00 1.16 1.16 88 1014.0
20260904200017 78 294 1.0 1.0 0.00 1.16 1.16 88 1014.2
20260904195515 79 43 1.0 1.0 0.00 1.16 1.16 88 1013.9
20260904195014 79 217 0.0 1.0 0.00 1.16 1.16 86 1013.3
20260904194509 79 186 1.0 2.0 0.00 1.16 1.16 85 1013.5
20260904194004 79 198 1.0 2.0 0.00 1.16 1.16 85 1013.8
20260904193459 79 209 0.0 2.0 0.00 1.16 1.16 85 1014.2
20260904192955 79 213 0.0 1.0 0.00 1.16 1.16 85 1014.4
20260904192454 79 212 0.0 0.0 0.00 1.16 1.16 85 1014.7
20260904191951 79 217 2.0 2.0 0.00 1.16 1.16 85 1014.9
20260904191447 78 237 2.0 2.0 0.00 1.16 1.16 86 1015.4
20260904190943 78 228 2.0 5.0 0.00 1.16 1.16 86 1015.8
20260904190438 78 240 3.0 6.0 0.00 1.16 1.16 87 1016.0
20260904185935 78 228 3.0 6.0 0.00 1.16 1.16 86 1016.4
20260904185431 77 226 2.0 5.0 0.00 1.16 1.16 87 1016.4
20260904184930 77 225 2.0 5.0 0.00 1.16 1.16 87 1016.4
20260904184425 77 237 2.0 6.0 0.00 1.16 1.16 88 1016.1
20260904183920 76 222 4.0 7.0 0.00 1.16 1.16 89 1016.2
20260904183415 76 223 4.0 10.0 0.00 1.16 1.16 89 1016.2
20260904182911 75 216 5.0 8.0 0.00 1.16 1.16 91 1016.4
20260904182406 74 206 6.0 9.0 0.00 1.16 1.16 93 1016.1
20260904181901 74 201 6.0 9.0 0.00 1.16 1.16 94 1016.1
20260904181356 73 229 7.0 10.0 0.00 1.16 1.16 96 1016.0
20260904180851 73 211 6.0 7.0 0.00 1.16 1.16 96 1016.0
20260904180346 72 206 5.0 10.0 0.00 1.16 1.16 96 1016.1
20260904175846 72 202 3.0 3.0 0.00 1.16 1.16 97 1016.3
20260904175344 72 199 3.0 5.0 0.00 1.16 1.16 98 1016.3
20260904174838 71 189 2.0 3.0 0.00 1.16 1.16 98 1016.4
20260904174334 71 151 3.0 6.0 0.00 1.16 1.16 98 1016.3
20260904173831 71 145 2.0 5.0 0.00 1.16 1.16 98 1016.3
20260904173326 71 207 5.0 7.0 0.00 1.16 1.16 98 1016.5
20260904172822 71 208 3.0 6.0 0.00 1.16 1.16 98 1017.1
20260904172321 71 172 3.0 6.0 0.00 1.16 1.16 98 1017.4
20260904171816 71 207 3.0 5.0 0.07 1.16 1.16 97 1017.8
20260904171311 71 186 3.0 3.0 0.00 1.15 1.15 98 1018.0
20260904170807 71 206 0.0 2.0 0.00 1.15 1.15 97 1017.9
20260904170303 71 198 2.0 2.0 0.00 1.15 1.15 97 1018.1
20260904165802 71 206 1.0 1.0 0.00 1.15 1.15 97 1018.4
20260904165256 71 212 1.0 3.0 0.00 1.15 1.15 97 1019.3
20260904164750 71 211 1.0 1.0 0.00 1.15 1.15 97 1019.5
20260904164246 71 223 1.0 1.0 0.00 1.15 1.15 97 1020.0
20260904163742 71 224 0.0 0.0 0.00 1.15 1.15 97 1019.9
20260904163237 71 221 0.0 0.0 0.00 1.15 1.15 96 1020.1
20260904162736 72 236 0.0 1.0 0.00 1.15 1.15 96 1020.1
20260904162231 72 225 0.0 0.0 0.00 1.15 1.15 96 1020.1
20260904161727 72 232 0.0 2.0 0.00 1.15 1.15 96 1020.6
20260904161226 72 307 2.0 3.0 0.00 1.15 1.15 96 1020.3
20260904160722 72 229 0.0 1.0 0.00 1.15 1.15 96 1019.9
20260904160218 72 268 0.0 2.0 0.00 1.15 1.15 96 1019.8
20260904155717 72 233 0.0 0.0 0.00 1.15 1.15 95 1020.0
20260904155217 72 248 0.0 1.0 0.00 1.15 1.15 95 1019.2
20260904154716 72 81 1.0 3.0 0.00 1.15 1.15 95 1019.3
20260904154210 72 84 2.0 3.0 0.00 1.15 1.15 95 1019.2
20260904153706 72 171 0.0 3.0 0.00 1.15 1.15 95 1019.1
20260904153201 72 65 1.0 3.0 0.00 1.15 1.15 95 1019.1
20260904152658 72 157 2.0 5.0 0.00 1.15 1.15 95 1018.9
20260904152153 72 75 2.0 5.0 0.00 1.15 1.15 96 1018.9
20260904151648 72 83 4.0 8.0 0.00 1.15 1.15 96 1018.9
20260904151146 71 103 3.0 8.0 0.00 1.15 1.15 97 1019.0
20260904150642 71 94 4.0 7.0 0.00 1.15 1.15 98 1019.0
20260904150138 71 105 4.0 7.0 0.00 1.15 1.15 99 1019.2
20260904145637 71 28 1.0 3.0 0.00 1.15 1.15 99 1019.2
20260904145131 71 347 0.0 3.0 0.00 1.15 1.15 99 1019.5
20260904144627 71 348 1.0 2.0 0.00 1.15 1.15 99 1019.6
20260904144123 72 11 2.0 3.0 0.00 1.15 1.15 99 1020.0
20260904143619 72 323 1.0 2.0 0.00 1.15 1.15 99 1019.9
20260904143115 71 233 0.0 1.0 0.00 1.15 1.15 99 1019.3
20260904142611 72 286 1.0 2.0 0.00 1.15 1.15 99 1019.1
20260904142112 72 218 0.0 3.0 0.00 1.15 1.15 99 1018.9
20260904141607 73 357 2.0 3.0 0.00 1.15 1.15 99 1018.8
20260904141102 73 286 0.0 0.0 0.00 1.15 1.15 99 1017.4
20260904140557 72 219 0.0 1.0 0.00 1.15 1.15 99 1017.2
20260904140051 72 228 0.0 0.0 0.00 1.15 1.15 99 1017.1
20260904135551 72 214 0.0 2.0 0.00 1.15 1.15 99 1017.1
20260904135047 72 218 0.0 0.0 0.00 1.15 1.15 99 1017.1
20260904134543 72 215 0.0 0.0 0.00 1.15 1.15 99 1017.1
20260904134036 72 222 0.0 1.0 0.00 1.15 1.15 99 1017.1
20260904133531 72 194 0.0 0.0 0.00 1.15 1.15 99 1017.2
20260904133028 72 206 0.0 1.0 0.00 1.15 1.15 99 1017.2
20260904132527 72 215 0.0 0.0 0.00 1.15 1.15 99 1017.2
20260904132022 72 207 0.0 1.0 0.00 1.15 1.15 99 1017.0
20260904131521 72 215 0.0 2.0 0.00 1.15 1.15 99 1016.7
20260904131017 71 229 0.0 0.0 0.00 1.15 1.15 99 1017.0
20260904130516 71 205 0.0 0.0 0.00 1.15 1.15 99 1016.6
20260904130011 71 212 0.0 0.0 0.00 1.15 1.15 99 1016.8
20260904125508 71 209 0.0 1.0 0.00 1.15 1.15 99 1016.7
20260904125001 71 208 0.0 1.0 0.00 1.15 1.15 99 1016.7
20260904124458 71 209 0.0 0.0 0.00 1.15 1.15 99 1016.8
20260904123954 71 182 0.0 0.0 0.00 1.15 1.15 99 1017.2
20260904123448 71 200 0.0 0.0 0.00 1.15 1.15 99 1017.2
20260904122944 71 207 0.0 2.0 0.00 1.15 1.15 99 1017.3
20260904122443 71 147 2.0 2.0 0.07 1.15 1.15 99 1017.6
20260904121937 71 318 3.0 3.0 0.14 1.15 1.15 99 1018.3
20260904121434 71 331 3.0 3.0 0.07 1.13 1.13 99 1018.4
20260904120930 71 237 0.0 3.0 0.00 1.12 1.12 99 1018.4
20260904120426 70 15 5.0 10.0 0.00 1.12 1.12 99 1018.7
20260904115920 70 290 3.0 6.0 0.00 1.12 1.12 99 1018.7
20260904115416 70 232 0.0 0.0 0.00 1.12 1.12 99 1017.1
20260904114910 70 218 0.0 0.0 0.00 1.12 1.12 99 1016.9
20260904114405 70 215 0.0 0.0 0.00 1.12 1.12 99 1016.9
20260904113901 70 220 0.0 0.0 0.00 1.12 1.12 99 1016.9
20260904113400 70 220 0.0 0.0 0.00 1.12 1.12 99 1016.8
20260904112854 70 205 0.0 0.0 0.00 1.12 1.12 99 1016.6
20260904112350 70 197 0.0 0.0 0.00 1.12 1.12 99 1016.6
20260904111845 70 257 0.0 0.0 0.00 1.12 1.12 99 1016.5
20260904111341 70 220 0.0 0.0 0.00 1.12 1.12 99 1016.3
20260904110836 70 163 0.0 1.0 0.00 1.12 1.12 99 1016.2
20260904110335 70 159 0.0 0.0 0.00 1.12 1.12 99 1016.2
20260904105830 70 213 0.0 0.0 0.00 1.12 1.12 99 1016.4
20260904105325 70 210 0.0 2.0 0.00 1.12 1.12 99 1016.2
20260904104820 70 77 3.0 6.0 0.00 1.12 1.12 99 1016.2
20260904104316 71 110 1.0 2.0 0.00 1.12 1.12 99 1016.6
20260904103813 71 97 3.0 3.0 0.14 1.12 1.12 99 1016.4
20260904103312 70 58 1.0 1.0 0.92 1.12 1.12 99 1016.3
20260904102808 70 98 0.0 3.0 1.84 1.09 1.09 99 1016.2
20260904102306 69 10 0.0 1.0 1.84 0.96 0.96 99 1016.6
20260904101759 69 349 1.0 5.0 1.70 0.73 0.73 99 1016.4
20260904101255 69 97 3.0 6.0 1.21 0.60 0.60 99 1016.6
20260904100751 68 96 1.0 3.0 0.64 0.45 0.45 99 1016.5
20260904100247 68 64 2.0 3.0 0.71 0.40 0.40 99 1016.5
20260904095746 68 287 2.0 5.0 1.35 0.33 0.33 99 1017.1
20260904095241 68 261 1.0 2.0 1.35 0.24 0.24 99 1017.4
20260904094736 70 301 4.0 6.0 0.35 0.07 0.07 99 1017.5
20260904094231 70 236 4.0 7.0 0.00 0.01 0.01 99 1017.0
20260904093727 70 266 1.0 2.0 0.00 0.01 0.01 99 1017.0
20260904093227 70 282 0.0 1.0 0.00 0.01 0.01 99 1016.7
20260904092723 70 199 0.0 0.0 0.00 0.01 0.01 99 1016.3
20260904092219 70 74 1.0 2.0 0.00 0.01 0.01 99 1015.7
20260904091715 70 263 0.0 0.0 0.00 0.01 0.01 99 1016.1
20260904091209 70 198 1.0 1.0 0.00 0.01 0.01 99 1016.1
20260904090705 70 166 0.0 1.0 0.00 0.01 0.01 99 1016.1
20260904090201 69 207 0.0 0.0 0.07 0.01 0.01 99 1016.0
20260904085656 69 212 0.0 0.0 0.07 0.01 0.01 99 1016.4
20260904085156 69 205 0.0 0.0 0.00 0.00 0.00 99 1016.5
20260904084651 69 205 0.0 0.0 0.00 0.00 0.00 99 1016.3
20260904084147 69 194 0.0 0.0 0.00 0.00 0.00 99 1016.5
20260904083643 69 201 0.0 0.0 0.00 0.00 0.00 99 1016.4
20260904083139 69 159 0.0 1.0 0.00 0.00 0.00 99 1016.2
20260904082633 69 48 1.0 2.0 0.00 0.00 0.00 99 1016.3
20260904082129 69 75 2.0 2.0 0.00 0.00 0.00 99 1016.4
20260904081625 69 172 0.0 0.0 0.00 0.00 0.00 99 1016.3
20260904081120 69 156 0.0 0.0 0.00 0.00 0.00 99 1016.2
20260904080615 69 159 0.0 1.0 0.00 0.00 0.00 99 1016.2
20260904080112 69 142 0.0 0.0 0.00 0.00 0.00 99 1016.3
20260904075607 69 74 0.0 0.0 0.00 0.00 0.00 99 1016.4
20260904075107 69 90 0.0 0.0 0.00 0.00 0.00 99 1016.1
20260904074607 69 143 0.0 0.0 0.00 0.00 0.00 99 1016.2
20260904074101 69 167 0.0 1.0 0.00 0.00 0.00 99 1016.2
20260904073556 69 91 0.0 0.0 0.00 0.00 0.00 99 1016.4
20260904073053 69 162 0.0 0.0 0.00 0.00 0.00 99 1016.3
20260904072548 69 215 0.0 0.0 0.00 0.00 0.00 99 1016.3
20260904072043 69 215 0.0 0.0 0.00 0.00 0.00 99 1016.3
20260904071539 69 220 0.0 0.0 0.00 0.00 0.00 99 1016.5
20260904071033 69 220 0.0 0.0 0.00 0.00 0.00 99 1016.5
20260904070532 69 220 0.0 0.0 0.00 0.00 0.00 99 1016.7
20260904070028 69 215 0.0 0.0 0.00 0.00 0.00 99 1016.6
20260904065523 69 213 0.0 0.0 0.00 0.00 0.00 99 1016.5
20260904065019 69 197 0.0 0.0 0.00 0.00 0.00 99 1016.6
20260904064515 69 231 0.0 0.0 0.00 0.00 0.00 99 1016.8
20260904064015 69 230 0.0 0.0 0.00 0.00 0.00 99 1016.6
20260904063511 69 230 0.0 0.0 0.00 0.00 0.00 99 1016.6
20260904063006 69 230 0.0 0.0 0.00 0.00 0.00 99 1016.5
20260904062502 69 235 0.0 0.0 0.00 0.00 0.00 99 1016.7
20260904061958 69 233 0.0 0.0 0.00 0.00 0.00 99 1016.8
20260904061454 69 230 0.0 0.0 0.00 0.00 0.00 99 1016.8
20260904060950 69 227 0.0 0.0 0.00 0.00 0.00 99 1016.7
20260904060445 69 227 0.0 0.0 0.00 0.00 0.00 99 1016.7
20260904055941 69 232 0.0 0.0 0.00 0.00 0.00 99 1016.8
20260904055436 69 234 0.0 0.0 0.00 0.00 0.00 99 1017.0
20260904054932 69 236 0.0 0.0 0.00 0.00 0.00 99 1017.0
20260904054427 70 243 0.0 0.0 0.00 0.00 0.00 99 1017.0
20260904053923 69 232 0.0 0.0 0.00 0.00 0.00 99 1016.9
20260904053422 69 219 0.0 2.0 0.00 0.00 0.00 99 1016.8
20260904052918 70 220 0.0 0.0 0.00 0.00 0.00 99 1016.8
20260904052414 69 210 0.0 0.0 0.00 0.00 0.00 99 1016.8
20260904051910 69 242 0.0 0.0 0.00 0.00 0.00 99 1017.1
20260904051406 69 231 0.0 0.0 0.00 0.00 0.00 99 1017.1